Tracking 29892 objects as of 21-Nov-2024
HD Live streaming from Space Station
objects crossing your sky now

CZ-6A DEB

Track CZ-6A DEB now!
10-day predictions


NORAD ID: 54386
Int'l Code: 2022-151DJ
Perigee: 817.7 km
Apogee: 1,005.5 km
Inclination: 98.9 °
Period: 103.1 minutes
Semi major axis: 7282 km
RCS: Unknown
Launch date: November 11, 2022
Source: People's Republic of China (PRC)
Launch site: Taiyaun Space Center, China (TSC)

Note: This is SATELLITE DEBRIS
Your satellite tracking list
Your tracking list is empty




NASA's NSSDC Master Catalog

Two Line Element Set (TLE):
1 54386U 22151DJ  24325.63959657  .00000599  00000-0  43001-3 0  9997
2 54386  98.8736 312.1993 0128918 229.9643 129.0153 13.96915705102630
Source of the keplerian elements: AFSPC